| time (UTC) | temp F | wind direction | speed MPH | gust MPH | rain 1hr in | rain 24hr in | rain mn in | humidity % | barometer mb |
| 20260507144737 | 54 | 243 | 4.0 | 14.0 | 0.00 | 0.00 | 0.00 | 43 | 1015.7 |
| 20260507144237 | 54 | 251 | 5.0 | 14.0 | 0.00 | 0.00 | 0.00 | 43 | 1015.8 |
| 20260507143758 | 53 | 250 | 3.0 | 14.0 | 0.00 | 0.00 | 0.00 | 44 | 1015.8 |
| 20260507143258 | 53 | 246 | 3.0 | 10.0 | 0.00 | 0.00 | 0.00 | 45 | 1015.9 |
| 20260507142737 | 52 | 219 | 4.0 | 13.0 | 0.00 | 0.00 | 0.00 | 44 | 1015.8 |
| 20260507142237 | 52 | 244 | 5.0 | 13.0 | 0.00 | 0.00 | 0.00 | 44 | 1015.7 |
| 20260507141737 | 51 | 264 | 4.0 | 12.0 | 0.00 | 0.00 | 0.00 | 44 | 1015.7 |
| 20260507141237 | 51 | 250 | 6.0 | 12.0 | 0.00 | 0.00 | 0.00 | 44 | 1015.7 |
| 20260507140737 | 51 | 245 | 3.0 | 14.0 | 0.00 | 0.00 | 0.00 | 44 | 1015.7 |
| 20260507140237 | 51 | 215 | 5.0 | 14.0 | 0.00 | 0.00 | 0.00 | 44 | 1015.6 |
| 20260507135737 | 50 | 264 | 4.0 | 10.0 | 0.00 | 0.00 | 0.00 | 45 | 1015.7 |
| 20260507135258 | 50 | 283 | 3.0 | 10.0 | 0.00 | 0.00 | 0.00 | 45 | 1015.7 |
| 20260507134737 | 49 | 262 | 4.0 | 10.0 | 0.00 | 0.00 | 0.00 | 47 | 1015.6 |
| 20260507134237 | 49 | 222 | 4.0 | 9.0 | 0.00 | 0.00 | 0.00 | 47 | 1015.5 |
| 20260507133737 | 48 | 249 | 4.0 | 10.0 | 0.00 | 0.00 | 0.00 | 48 | 1015.5 |
| 20260507133237 | 48 | 250 | 3.0 | 10.0 | 0.00 | 0.00 | 0.00 | 47 | 1015.5 |
| 20260507132737 | 47 | 244 | 4.0 | 9.0 | 0.00 | 0.00 | 0.00 | 48 | 1015.5 |
| 20260507132237 | 47 | 266 | 3.0 | 8.0 | 0.00 | 0.00 | 0.00 | 48 | 1015.4 |
| 20260507131737 | 46 | 246 | 3.0 | 7.0 | 0.00 | 0.00 | 0.00 | 49 | 1015.4 |
| 20260507131237 | 46 | 268 | 3.0 | 8.0 | 0.00 | 0.00 | 0.00 | 49 | 1015.4 |
| 20260507130737 | 45 | 222 | 4.0 | 11.0 | 0.00 | 0.00 | 0.00 | 50 | 1015.3 |
| 20260507130237 | 45 | 275 | 2.0 | 8.0 | 0.00 | 0.00 | 0.00 | 51 | 1015.2 |
| 20260507125737 | 44 | 227 | 3.0 | 8.0 | 0.00 | 0.00 | 0.00 | 51 | 1015.1 |
| 20260507125237 | 44 | 239 | 3.0 | 8.0 | 0.00 | 0.00 | 0.00 | 51 | 1015.1 |
| 20260507124737 | 43 | 217 | 3.0 | 8.0 | 0.00 | 0.00 | 0.00 | 51 | 1015.1 |
| 20260507124237 | 43 | 201 | 2.0 | 6.0 | 0.00 | 0.00 | 0.00 | 51 | 1015.1 |
| 20260507123758 | 42 | 224 | 3.0 | 7.0 | 0.00 | 0.00 | 0.00 | 52 | 1015.1 |
| 20260507123237 | 42 | 243 | 3.0 | 7.0 | 0.00 | 0.00 | 0.00 | 52 | 1015.0 |
| 20260507122737 | 41 | 280 | 2.0 | 7.0 | 0.00 | 0.00 | 0.00 | 53 | 1014.9 |
| 20260507122237 | 41 | 240 | 3.0 | 7.0 | 0.00 | 0.00 | 0.00 | 53 | 1014.9 |
| 20260507121737 | 41 | 219 | 3.0 | 6.0 | 0.00 | 0.00 | 0.00 | 54 | 1014.8 |
| 20260507121237 | 40 | 247 | 1.0 | 5.0 | 0.00 | 0.00 | 0.00 | 55 | 1014.9 |
| 20260507120737 | 40 | 231 | 3.0 | 7.0 | 0.00 | 0.00 | 0.00 | 55 | 1014.9 |
| 20260507120237 | 40 | 236 | 2.0 | 7.0 | 0.00 | 0.00 | 0.00 | 55 | 1014.9 |
| 20260507115737 | 40 | 234 | 2.0 | 5.0 | 0.00 | 0.00 | 0.00 | 55 | 1014.9 |
| 20260507115237 | 40 | 250 | 2.0 | 5.0 | 0.00 | 0.00 | 0.00 | 55 | 1014.7 |
| 20260507114737 | 40 | 240 | 1.0 | 6.0 | 0.00 | 0.00 | 0.00 | 55 | 1014.8 |
| 20260507114237 | 40 | 223 | 2.0 | 6.0 | 0.00 | 0.00 | 0.00 | 56 | 1014.8 |
| 20260507113737 | 40 | 220 | 3.0 | 6.0 | 0.00 | 0.00 | 0.00 | 56 | 1014.7 |
| 20260507113237 | 40 | 248 | 2.0 | 6.0 | 0.00 | 0.00 | 0.00 | 55 | 1014.7 |
| 20260507112737 | 40 | 255 | 2.0 | 6.0 | 0.00 | 0.00 | 0.00 | 55 | 1014.6 |
| 20260507112237 | 40 | 263 | 2.0 | 6.0 | 0.00 | 0.00 | 0.00 | 56 | 1014.7 |
| 20260507111737 | 40 | 256 | 3.0 | 6.0 | 0.00 | 0.00 | 0.00 | 55 | 1014.6 |
| 20260507111237 | 40 | 271 | 2.0 | 8.0 | 0.00 | 0.00 | 0.00 | 55 | 1014.6 |
| 20260507110737 | 39 | 236 | 3.0 | 8.0 | 0.00 | 0.00 | 0.00 | 56 | 1014.5 |
| 20260507110237 | 39 | 210 | 3.0 | 9.0 | 0.00 | 0.00 | 0.00 | 56 | 1014.7 |
| 20260507105737 | 39 | 218 | 2.0 | 9.0 | 0.00 | 0.00 | 0.00 | 57 | 1014.7 |
| 20260507105237 | 39 | 222 | 3.0 | 8.0 | 0.00 | 0.00 | 0.00 | 57 | 1014.8 |
| 20260507104737 | 39 | 238 | 3.0 | 7.0 | 0.00 | 0.00 | 0.00 | 57 | 1014.8 |
| 20260507104258 | 39 | 247 | 1.0 | 7.0 | 0.00 | 0.00 | 0.00 | 57 | 1014.9 |
| 20260507103758 | 39 | 240 | 2.0 | 8.0 | 0.00 | 0.00 | 0.00 | 57 | 1014.9 |
| 20260507103237 | 39 | 243 | 3.0 | 8.0 | 0.00 | 0.00 | 0.00 | 57 | 1014.9 |
| 20260507102737 | 39 | 264 | 2.0 | 6.0 | 0.00 | 0.00 | 0.00 | 57 | 1014.9 |
| 20260507102237 | 39 | 254 | 2.0 | 7.0 | 0.00 | 0.00 | 0.00 | 57 | 1015.0 |
| 20260507101758 | 39 | 237 | 2.0 | 7.0 | 0.00 | 0.00 | 0.00 | 58 | 1015.1 |
| 20260507101258 | 39 | 247 | 2.0 | 6.0 | 0.00 | 0.00 | 0.00 | 58 | 1015.1 |
| 20260507100737 | 39 | 259 | 1.0 | 6.0 | 0.00 | 0.00 | 0.00 | 58 | 1015.2 |
| 20260507100237 | 39 | 255 | 2.0 | 6.0 | 0.00 | 0.00 | 0.00 | 58 | 1015.3 |
| 20260507095758 | 39 | 240 | 2.0 | 6.0 | 0.00 | 0.00 | 0.00 | 58 | 1015.2 |
| 20260507095237 | 39 | 208 | 1.0 | 6.0 | 0.00 | 0.00 | 0.00 | 58 | 1015.2 |
| 20260507094737 | 38 | 267 | 2.0 | 6.0 | 0.00 | 0.00 | 0.00 | 59 | 1015.2 |
| 20260507094237 | 38 | 255 | 1.0 | 8.0 | 0.00 | 0.00 | 0.00 | 60 | 1015.2 |
| 20260507093737 | 38 | 255 | 3.0 | 8.0 | 0.00 | 0.00 | 0.00 | 61 | 1015.2 |
| 20260507093237 | 37 | 230 | 3.0 | 7.0 | 0.00 | 0.00 | 0.00 | 62 | 1015.2 |
| 20260507092737 | 37 | 198 | 3.0 | 6.0 | 0.00 | 0.00 | 0.00 | 64 | 1015.2 |
| 20260507092237 | 37 | 189 | 2.0 | 6.0 | 0.00 | 0.00 | 0.00 | 65 | 1015.3 |
| 20260507091737 | 36 | 235 | 1.0 | 5.0 | 0.00 | 0.00 | 0.00 | 66 | 1015.3 |
| 20260507091237 | 36 | 220 | 0.0 | 3.0 | 0.00 | 0.00 | 0.00 | 67 | 1015.3 |
| 20260507090737 | 36 | 201 | 1.0 | 4.0 | 0.00 | 0.00 | 0.00 | 67 | 1015.4 |
| 20260507090237 | 36 | 167 | 1.0 | 4.0 | 0.00 | 0.00 | 0.00 | 67 | 1015.3 |
| 20260507085737 | 36 | 177 | 1.0 | 3.0 | 0.00 | 0.00 | 0.00 | 68 | 1015.3 |
| 20260507085237 | 36 | 162 | 1.0 | 3.0 | 0.00 | 0.00 | 0.00 | 68 | 1015.3 |
| 20260507084758 | 36 | 190 | 1.0 | 4.0 | 0.00 | 0.00 | 0.00 | 69 | 1015.3 |
| 20260507084237 | 36 | 171 | 1.0 | 4.0 | 0.00 | 0.00 | 0.00 | 70 | 1015.3 |
| 20260507083737 | 36 | 226 | 1.0 | 5.0 | 0.00 | 0.00 | 0.00 | 71 | 1015.4 |
| 20260507083237 | 36 | 211 | 1.0 | 5.0 | 0.00 | 0.00 | 0.00 | 72 | 1015.5 |
| 20260507082737 | 35 | 182 | 1.0 | 6.0 | 0.00 | 0.00 | 0.00 | 73 | 1015.6 |
| 20260507082237 | 35 | 248 | 1.0 | 6.0 | 0.00 | 0.00 | 0.00 | 74 | 1015.7 |
| 20260507081737 | 35 | 197 | 1.0 | 6.0 | 0.00 | 0.00 | 0.00 | 75 | 1015.8 |
| 20260507081237 | 35 | 176 | 1.0 | 6.0 | 0.00 | 0.00 | 0.00 | 76 | 1015.8 |
| 20260507080737 | 35 | 230 | 2.0 | 6.0 | 0.00 | 0.00 | 0.00 | 77 | 1015.8 |
| 20260507080237 | 35 | 217 | 2.0 | 5.0 | 0.00 | 0.00 | 0.00 | 77 | 1015.9 |
| 20260507075737 | 35 | 266 | 1.0 | 5.0 | 0.00 | 0.00 | 0.00 | 77 | 1016.0 |
| 20260507075258 | 35 | 241 | 1.0 | 5.0 | 0.00 | 0.00 | 0.00 | 77 | 1016.1 |
| 20260507074737 | 35 | 264 | 1.0 | 5.0 | 0.00 | 0.00 | 0.00 | 77 | 1015.9 |
| 20260507074237 | 35 | 215 | 2.0 | 6.0 | 0.00 | 0.00 | 0.00 | 77 | 1016.1 |
| 20260507073737 | 35 | 229 | 2.0 | 6.0 | 0.00 | 0.00 | 0.00 | 78 | 1016.2 |
| 20260507073237 | 34 | 249 | 2.0 | 5.0 | 0.00 | 0.00 | 0.00 | 78 | 1016.3 |
| 20260507072737 | 34 | 257 | 2.0 | 6.0 | 0.00 | 0.00 | 0.00 | 79 | 1016.3 |
| 20260507072258 | 34 | 267 | 1.0 | 4.0 | 0.00 | 0.00 | 0.00 | 79 | 1016.3 |
| 20260507071737 | 34 | 238 | 1.0 | 4.0 | 0.00 | 0.00 | 0.00 | 80 | 1016.4 |
| 20260507071237 | 34 | 204 | 1.0 | 5.0 | 0.00 | 0.00 | 0.00 | 80 | 1016.3 |
| 20260507070737 | 34 | 216 | 1.0 | 5.0 | 0.00 | 0.00 | 0.00 | 81 | 1016.4 |
| 20260507070237 | 34 | 192 | 1.0 | 6.0 | 0.00 | 0.00 | 0.00 | 81 | 1016.4 |
| 20260507065758 | 34 | 223 | 2.0 | 6.0 | 0.00 | 0.00 | 0.00 | 82 | 1016.4 |
| 20260507065237 | 34 | 239 | 2.0 | 5.0 | 0.00 | 0.00 | 0.00 | 83 | 1016.4 |
| 20260507064737 | 34 | 213 | 2.0 | 5.0 | 0.00 | 0.00 | 0.00 | 83 | 1016.4 |
| 20260507064237 | 33 | 218 | 1.0 | 3.0 | 0.00 | 0.00 | 0.00 | 84 | 1016.5 |
| 20260507063737 | 33 | 109 | 1.0 | 3.0 | 0.00 | 0.00 | 0.00 | 84 | 1016.5 |
| 20260507063237 | 33 | 217 | 1.0 | 4.0 | 0.00 | 0.00 | 0.00 | 84 | 1016.5 |
| 20260507062737 | 33 | 200 | 1.0 | 4.0 | 0.00 | 0.00 | 0.00 | 84 | 1016.7 |
| 20260507062237 | 33 | 250 | 1.0 | 4.0 | 0.00 | 0.00 | 0.00 | 84 | 1016.7 |
| 20260507061737 | 33 | 186 | 1.0 | 4.0 | 0.00 | 0.00 | 0.00 | 84 | 1016.7 |
| 20260507061237 | 33 | 161 | 1.0 | 5.0 | 0.00 | 0.00 | 0.00 | 84 | 1016.7 |
| 20260507060737 | 33 | 244 | 1.0 | 5.0 | 0.00 | 0.00 | 0.00 | 85 | 1016.7 |
| 20260507060237 | 33 | 210 | 1.0 | 5.0 | 0.00 | 0.00 | 0.00 | 85 | 1016.7 |
| 20260507055737 | 33 | 157 | 2.0 | 5.0 | 0.00 | 0.47 | 0.47 | 85 | 1016.6 |
| 20260507055237 | 33 | 182 | 1.0 | 5.0 | 0.00 | 0.47 | 0.47 | 85 | 1016.7 |
| 20260507054737 | 33 | 184 | 0.0 | 4.0 | 0.00 | 0.47 | 0.47 | 85 | 1016.8 |
| 20260507054237 | 33 | 188 | 1.0 | 5.0 | 0.00 | 0.47 | 0.47 | 85 | 1016.8 |
| 20260507053737 | 33 | 198 | 1.0 | 5.0 | 0.00 | 0.47 | 0.47 | 85 | 1017.0 |
| 20260507053237 | 33 | 165 | 2.0 | 5.0 | 0.00 | 0.47 | 0.47 | 85 | 1016.9 |
| 20260507052758 | 33 | 173 | 1.0 | 4.0 | 0.00 | 0.47 | 0.47 | 84 | 1017.0 |
| 20260507052258 | 33 | 174 | 1.0 | 4.0 | 0.00 | 0.47 | 0.47 | 84 | 1017.0 |
| 20260507051737 | 33 | 178 | 1.0 | 5.0 | 0.00 | 0.47 | 0.47 | 84 | 1017.1 |
| 20260507051237 | 33 | 167 | 1.0 | 6.0 | 0.00 | 0.47 | 0.47 | 84 | 1017.2 |
| 20260507050737 | 33 | 168 | 1.0 | 6.0 | 0.00 | 0.47 | 0.47 | 84 | 1017.2 |
| 20260507050258 | 33 | 185 | 1.0 | 6.0 | 0.00 | 0.47 | 0.47 | 83 | 1017.2 |
| 20260507045737 | 33 | 174 | 1.0 | 5.0 | 0.00 | 0.47 | 0.47 | 83 | 1017.2 |
| 20260507045258 | 33 | 176 | 1.0 | 7.0 | 0.00 | 0.47 | 0.47 | 83 | 1017.3 |
| 20260507044737 | 33 | 152 | 1.0 | 7.0 | 0.00 | 0.47 | 0.47 | 83 | 1017.4 |
| 20260507044258 | 33 | 203 | 2.0 | 6.0 | 0.00 | 0.47 | 0.47 | 83 | 1017.3 |
| 20260507043737 | 33 | 164 | 1.0 | 8.0 | 0.00 | 0.47 | 0.47 | 83 | 1017.4 |
| 20260507043237 | 33 | 177 | 3.0 | 8.0 | 0.00 | 0.47 | 0.47 | 83 | 1017.4 |
| 20260507042737 | 34 | 172 | 2.0 | 6.0 | 0.00 | 0.47 | 0.47 | 82 | 1017.4 |
| 20260507042258 | 34 | 176 | 1.0 | 6.0 | 0.00 | 0.47 | 0.47 | 82 | 1017.4 |
| 20260507041737 | 34 | 180 | 1.0 | 6.0 | 0.00 | 0.47 | 0.47 | 82 | 1017.6 |
| 20260507041237 | 34 | 197 | 1.0 | 5.0 | 0.00 | 0.47 | 0.47 | 82 | 1017.6 |
| 20260507040737 | 34 | 176 | 2.0 | 5.0 | 0.00 | 0.47 | 0.47 | 81 | 1017.6 |
| 20260507040258 | 34 | 211 | 1.0 | 5.0 | 0.00 | 0.47 | 0.47 | 81 | 1017.6 |
| 20260507035737 | 34 | 203 | 2.0 | 6.0 | 0.00 | 0.47 | 0.47 | 81 | 1017.5 |
| 20260507035237 | 34 | 168 | 2.0 | 6.0 | 0.00 | 0.47 | 0.47 | 81 | 1017.5 |
| 20260507034737 | 35 | 196 | 3.0 | 6.0 | 0.00 | 0.47 | 0.47 | 81 | 1017.4 |
| 20260507034237 | 34 | 201 | 1.0 | 6.0 | 0.00 | 0.47 | 0.47 | 81 | 1017.4 |
| 20260507033758 | 34 | 177 | 1.0 | 6.0 | 0.00 | 0.47 | 0.47 | 80 | 1017.4 |
| 20260507033237 | 34 | 196 | 3.0 | 6.0 | 0.00 | 0.47 | 0.47 | 80 | 1017.5 |
| 20260507032737 | 35 | 178 | 1.0 | 6.0 | 0.00 | 0.47 | 0.47 | 80 | 1017.5 |
| 20260507032237 | 35 | 174 | 1.0 | 6.0 | 0.00 | 0.47 | 0.47 | 80 | 1017.5 |
| 20260507031758 | 35 | 190 | 2.0 | 7.0 | 0.00 | 0.47 | 0.47 | 80 | 1017.6 |
| 20260507031237 | 35 | 153 | 2.0 | 7.0 | 0.00 | 0.47 | 0.47 | 79 | 1017.5 |
| 20260507030737 | 35 | 176 | 1.0 | 6.0 | 0.00 | 0.47 | 0.47 | 79 | 1017.5 |
| 20260507030237 | 35 | 180 | 2.0 | 6.0 | 0.00 | 0.47 | 0.47 | 79 | 1017.4 |
| 20260507025737 | 35 | 169 | 3.0 | 6.0 | 0.00 | 0.47 | 0.47 | 79 | 1017.3 |
| 20260507025237 | 35 | 177 | 3.0 | 5.0 | 0.00 | 0.47 | 0.47 | 79 | 1017.4 |
| 20260507024758 | 35 | 185 | 2.0 | 6.0 | 0.00 | 0.47 | 0.47 | 79 | 1017.4 |
| 20260507024237 | 35 | 172 | 2.0 | 6.0 | 0.00 | 0.47 | 0.47 | 78 | 1017.4 |
| 20260507023738 | 36 | 181 | 2.0 | 5.0 | 0.00 | 0.47 | 0.47 | 78 | 1017.3 |
| 20260507023237 | 36 | 179 | 2.0 | 5.0 | 0.00 | 0.47 | 0.47 | 77 | 1017.4 |
| 20260507022737 | 36 | 175 | 1.0 | 7.0 | 0.00 | 0.47 | 0.47 | 77 | 1017.4 |
| 20260507022258 | 36 | 166 | 2.0 | 7.0 | 0.00 | 0.47 | 0.47 | 76 | 1017.3 |
| 20260507021737 | 36 | 182 | 2.0 | 7.0 | 0.00 | 0.47 | 0.47 | 75 | 1017.3 |
| 20260507021237 | 37 | 184 | 1.0 | 6.0 | 0.00 | 0.47 | 0.47 | 74 | 1017.2 |
| 20260507020737 | 37 | 168 | 1.0 | 5.0 | 0.00 | 0.47 | 0.47 | 74 | 1017.2 |
| 20260507020237 | 37 | 169 | 1.0 | 5.0 | 0.00 | 0.47 | 0.47 | 73 | 1017.2 |
| 20260507015758 | 38 | 189 | 1.0 | 5.0 | 0.00 | 0.47 | 0.47 | 71 | 1017.3 |
| 20260507015237 | 38 | 164 | 2.0 | 6.0 | 0.00 | 0.47 | 0.47 | 70 | 1017.3 |
| 20260507014738 | 38 | 188 | 2.0 | 7.0 | 0.00 | 0.47 | 0.47 | 69 | 1017.4 |
| 20260507014237 | 39 | 171 | 3.0 | 7.0 | 0.00 | 0.47 | 0.47 | 68 | 1017.4 |
| 20260507013737 | 39 | 206 | 1.0 | 4.0 | 0.00 | 0.47 | 0.47 | 68 | 1017.5 |
| 20260507013237 | 40 | 173 | 1.0 | 6.0 | 0.00 | 0.47 | 0.47 | 66 | 1017.4 |
| 20260507012737 | 40 | 178 | 2.0 | 6.0 | 0.00 | 0.47 | 0.47 | 66 | 1017.4 |
| 20260507012237 | 40 | 186 | 1.0 | 5.0 | 0.00 | 0.47 | 0.47 | 65 | 1017.4 |
| 20260507011737 | 40 | 147 | 1.0 | 5.0 | 0.00 | 0.47 | 0.47 | 65 | 1017.4 |
| 20260507011237 | 40 | 201 | 0.0 | 5.0 | 0.00 | 0.47 | 0.47 | 64 | 1017.5 |
| 20260507010737 | 41 | 169 | 2.0 | 5.0 | 0.00 | 0.47 | 0.47 | 64 | 1017.5 |
| 20260507010237 | 41 | 205 | 1.0 | 5.0 | 0.00 | 0.47 | 0.47 | 63 | 1017.5 |
| 20260507005737 | 41 | 239 | 1.0 | 5.0 | 0.00 | 0.47 | 0.47 | 64 | 1017.6 |
| 20260507005237 | 41 | 176 | 1.0 | 6.0 | 0.00 | 0.47 | 0.47 | 64 | 1017.6 |
| 20260507004737 | 41 | 191 | 1.0 | 6.0 | 0.00 | 0.47 | 0.47 | 66 | 1017.6 |
| 20260507004237 | 41 | 210 | 1.0 | 5.0 | 0.00 | 0.47 | 0.47 | 66 | 1017.7 |
| 20260507003737 | 41 | 241 | 2.0 | 5.0 | 0.00 | 0.47 | 0.47 | 66 | 1017.7 |
| 20260507003237 | 41 | 210 | 1.0 | 4.0 | 0.00 | 0.47 | 0.47 | 66 | 1017.7 |
| 20260507002737 | 41 | 171 | 1.0 | 5.0 | 0.00 | 0.47 | 0.47 | 67 | 1017.9 |
| 20260507002237 | 41 | 156 | 1.0 | 5.0 | 0.00 | 0.47 | 0.47 | 67 | 1017.9 |
| 20260507001758 | 41 | 222 | 1.0 | 4.0 | 0.00 | 0.47 | 0.47 | 69 | 1017.8 |
| 20260507001237 | 40 | 151 | 1.0 | 6.0 | 0.00 | 0.47 | 0.47 | 66 | 1017.9 |
| 20260507000737 | 40 | 167 | 2.0 | 6.0 | 0.00 | 0.47 | 0.47 | 67 | 1017.9 |
| 20260507000237 | 40 | 193 | 2.0 | 4.0 | 0.00 | 0.47 | 0.47 | 66 | 1017.8 |
| 20260506235737 | 40 | 211 | 1.0 | 5.0 | 0.00 | 0.47 | 0.47 | 64 | 1017.8 |
| 20260506235237 | 41 | 251 | 2.0 | 5.0 | 0.00 | 0.47 | 0.47 | 65 | 1017.8 |
| 20260506234737 | 41 | 149 | 1.0 | 5.0 | 0.00 | 0.47 | 0.47 | 65 | 1017.8 |
| 20260506234258 | 42 | 162 | 2.0 | 5.0 | 0.00 | 0.47 | 0.47 | 65 | 1017.9 |
| 20260506233737 | 42 | 184 | 2.0 | 6.0 | 0.00 | 0.47 | 0.47 | 66 | 1018.0 |
| 20260506233237 | 42 | 237 | 2.0 | 6.0 | 0.00 | 0.47 | 0.47 | 68 | 1018.0 |
| 20260506232737 | 41 | 207 | 2.0 | 6.0 | 0.00 | 0.47 | 0.47 | 68 | 1018.1 |
| 20260506232237 | 41 | 269 | 1.0 | 5.0 | 0.00 | 0.47 | 0.47 | 71 | 1018.0 |
| 20260506231737 | 40 | 246 | 1.0 | 5.0 | 0.00 | 0.47 | 0.47 | 73 | 1018.0 |
| 20260506231237 | 40 | 244 | 1.0 | 4.0 | 0.00 | 0.47 | 0.47 | 74 | 1018.0 |
| 20260506230758 | 39 | 268 | 1.0 | 4.0 | 0.00 | 0.47 | 0.47 | 74 | 1018.0 |
| 20260506230237 | 38 | 188 | 0.0 | 3.0 | 0.00 | 0.47 | 0.47 | 74 | 1018.0 |
| 20260506225737 | 39 | 249 | 1.0 | 3.0 | 0.01 | 0.47 | 0.47 | 73 | 1018.0 |
| 20260506225237 | 39 | 246 | 1.0 | 4.0 | 0.01 | 0.47 | 0.47 | 72 | 1018.0 |
| 20260506224737 | 39 | 224 | 2.0 | 4.0 | 0.01 | 0.47 | 0.47 | 71 | 1018.1 |
| 20260506224237 | 40 | 269 | 1.0 | 6.0 | 0.01 | 0.47 | 0.47 | 72 | 1018.2 |
| 20260506223737 | 40 | 251 | 2.0 | 6.0 | 0.01 | 0.47 | 0.47 | 71 | 1018.3 |
| 20260506223237 | 41 | 282 | 1.0 | 5.0 | 0.01 | 0.47 | 0.47 | 71 | 1018.3 |
| 20260506222737 | 41 | 271 | 1.0 | 5.0 | 0.01 | 0.47 | 0.47 | 75 | 1018.3 |
| 20260506222237 | 41 | 270 | 2.0 | 6.0 | 0.02 | 0.47 | 0.47 | 76 | 1018.3 |
| 20260506221758 | 40 | 227 | 1.0 | 6.0 | 0.02 | 0.47 | 0.47 | 77 | 1018.3 |
| 20260506221258 | 38 | 274 | 1.0 | 5.0 | 0.02 | 0.47 | 0.47 | 77 | 1018.4 |
| 20260506220758 | 38 | 299 | 2.0 | 5.0 | 0.03 | 0.47 | 0.47 | 77 | 1018.4 |
| 20260506220237 | 38 | 340 | 1.0 | 3.0 | 0.02 | 0.46 | 0.46 | 78 | 1018.4 |
| 20260506215737 | 38 | 322 | 0.0 | 2.0 | 0.03 | 0.46 | 0.46 | 77 | 1018.5 |
| 20260506215237 | 38 | 342 | 0.0 | 3.0 | 0.03 | 0.46 | 0.46 | 78 | 1018.5 |
| 20260506214737 | 38 | 323 | 1.0 | 4.0 | 0.03 | 0.46 | 0.46 | 78 | 1018.6 |
| 20260506214237 | 38 | 334 | 1.0 | 4.0 | 0.04 | 0.46 | 0.46 | 78 | 1018.6 |
| 20260506213758 | 38 | 267 | 1.0 | 4.0 | 0.04 | 0.46 | 0.46 | 77 | 1018.6 |
| 20260506213237 | 38 | 256 | 1.0 | 4.0 | 0.05 | 0.46 | 0.46 | 77 | 1018.6 |
| 20260506212737 | 38 | 240 | 1.0 | 3.0 | 0.05 | 0.46 | 0.46 | 79 | 1018.7 |
| 20260506212237 | 38 | 306 | 0.0 | 2.0 | 0.05 | 0.45 | 0.45 | 79 | 1018.8 |
| 20260506211737 | 38 | 337 | 1.0 | 3.0 | 0.06 | 0.45 | 0.45 | 80 | 1018.9 |
| 20260506211258 | 38 | 344 | 0.0 | 3.0 | 0.06 | 0.45 | 0.45 | 80 | 1018.8 |
| 20260506210737 | 38 | 349 | 1.0 | 3.0 | 0.06 | 0.44 | 0.44 | 81 | 1018.9 |
| 20260506210237 | 38 | 312 | 1.0 | 4.0 | 0.07 | 0.44 | 0.44 | 82 | 1019.0 |
| 20260506205737 | 37 | 324 | 1.0 | 4.0 | 0.07 | 0.43 | 0.43 | 84 | 1019.0 |
| 20260506205237 | 37 | 17 | 1.0 | 3.0 | 0.08 | 0.43 | 0.43 | 84 | 1019.0 |
| 20260506204737 | 37 | 65 | 1.0 | 3.0 | 0.09 | 0.43 | 0.43 | 83 | 1019.1 |
| 20260506204237 | 37 | 76 | 1.0 | 3.0 | 0.09 | 0.42 | 0.42 | 84 | 1019.2 |
| 20260506203737 | 37 | 105 | 1.0 | 4.0 | 0.10 | 0.42 | 0.42 | 85 | 1019.1 |
| 20260506203237 | 37 | 103 | 1.0 | 5.0 | 0.10 | 0.41 | 0.41 | 86 | 1019.2 |
| 20260506202737 | 37 | 16 | 1.0 | 4.0 | 0.11 | 0.41 | 0.41 | 88 | 1019.2 |
| 20260506202237 | 36 | 293 | 1.0 | 5.0 | 0.11 | 0.40 | 0.40 | 87 | 1019.2 |
| 20260506201737 | 37 | 323 | 2.0 | 6.0 | 0.11 | 0.39 | 0.39 | 88 | 1019.4 |
| 20260506201237 | 37 | 312 | 2.0 | 4.0 | 0.12 | 0.39 | 0.39 | 89 | 1019.4 |
| 20260506200737 | 37 | 308 | 2.0 | 5.0 | 0.12 | 0.38 | 0.38 | 89 | 1019.4 |
| 20260506200237 | 37 | 313 | 1.0 | 6.0 | 0.12 | 0.37 | 0.37 | 89 | 1019.4 |
| 20260506195737 | 37 | 331 | 3.0 | 6.0 | 0.12 | 0.36 | 0.36 | 89 | 1019.5 |
| 20260506195237 | 36 | 10 | 2.0 | 5.0 | 0.11 | 0.35 | 0.35 | 90 | 1019.5 |
| 20260506194758 | 36 | 329 | 2.0 | 5.0 | 0.11 | 0.34 | 0.34 | 90 | 1019.6 |
| 20260506194237 | 36 | 36 | 3.0 | 5.0 | 0.11 | 0.33 | 0.33 | 91 | 1019.6 |
| 20260506193737 | 36 | 3 | 2.0 | 6.0 | 0.10 | 0.32 | 0.32 | 91 | 1019.6 |
| 20260506193237 | 36 | 15 | 2.0 | 6.0 | 0.10 | 0.31 | 0.31 | 91 | 1019.6 |
| 20260506192737 | 36 | 354 | 2.0 | 7.0 | 0.10 | 0.30 | 0.30 | 91 | 1019.7 |
| 20260506192237 | 36 | 359 | 2.0 | 6.0 | 0.10 | 0.29 | 0.29 | 92 | 1019.7 |
| 20260506191737 | 35 | 342 | 3.0 | 6.0 | 0.10 | 0.28 | 0.28 | 92 | 1019.7 |
| 20260506191237 | 35 | 39 | 3.0 | 5.0 | 0.09 | 0.27 | 0.27 | 92 | 1019.7 |
| 20260506190737 | 35 | 25 | 3.0 | 5.0 | 0.09 | 0.26 | 0.26 | 92 | 1019.8 |
| 20260506190237 | 35 | 347 | 2.0 | 6.0 | 0.09 | 0.25 | 0.25 | 93 | 1019.8 |
| 20260506185737 | 35 | 348 | 2.0 | 6.0 | 0.09 | 0.24 | 0.24 | 93 | 1019.9 |
| 20260506185258 | 34 | 344 | 1.0 | 5.0 | 0.09 | 0.24 | 0.24 | 93 | 1019.9 |
| 20260506184737 | 34 | 328 | 2.0 | 6.0 | 0.09 | 0.23 | 0.23 | 93 | 1019.9 |
| 20260506184237 | 34 | 340 | 2.0 | 7.0 | 0.09 | 0.22 | 0.22 | 93 | 1019.9 |
| 20260506183737 | 34 | 337 | 3.0 | 7.0 | 0.10 | 0.22 | 0.22 | 94 | 1020.0 |
| 20260506183258 | 34 | 6 | 2.0 | 6.0 | 0.09 | 0.21 | 0.21 | 93 | 1019.9 |
| 20260506182737 | 34 | 2 | 3.0 | 7.0 | 0.09 | 0.20 | 0.20 | 94 | 1019.9 |
| 20260506182237 | 33 | 16 | 3.0 | 6.0 | 0.09 | 0.19 | 0.19 | 94 | 1019.9 |
| 20260506181758 | 33 | 7 | 3.0 | 7.0 | 0.08 | 0.18 | 0.18 | 94 | 1020.0 |
| 20260506181237 | 33 | 11 | 3.0 | 7.0 | 0.09 | 0.18 | 0.18 | 94 | 1019.9 |
| 20260506180737 | 33 | 25 | 5.0 | 7.0 | 0.08 | 0.17 | 0.17 | 94 | 1019.9 |
| 20260506180237 | 33 | 47 | 5.0 | 8.0 | 0.08 | 0.16 | 0.16 | 94 | 1019.9 |
| 20260506175737 | 33 | 358 | 4.0 | 9.0 | 0.07 | 0.15 | 0.15 | 94 | 1019.9 |
| 20260506175237 | 33 | 45 | 5.0 | 8.0 | 0.07 | 0.14 | 0.14 | 95 | 1019.8 |
| 20260506174737 | 33 | 26 | 3.0 | 8.0 | 0.07 | 0.14 | 0.14 | 94 | 1019.9 |
| 20260506174237 | 33 | 57 | 4.0 | 8.0 | 0.07 | 0.13 | 0.13 | 94 | 1019.8 |
| 20260506173737 | 33 | 55 | 4.0 | 8.0 | 0.06 | 0.12 | 0.12 | 94 | 1019.8 |
| 20260506173237 | 33 | 58 | 4.0 | 8.0 | 0.06 | 0.12 | 0.12 | 95 | 1019.7 |
| 20260506172737 | 33 | 35 | 4.0 | 9.0 | 0.06 | 0.11 | 0.11 | 95 | 1019.8 |
| 20260506172237 | 32 | 35 | 4.0 | 10.0 | 0.05 | 0.10 | 0.10 | 95 | 1019.7 |
| 20260506171758 | 32 | 42 | 6.0 | 10.0 | 0.05 | 0.10 | 0.10 | 95 | 1019.7 |
| 20260506171258 | 32 | 64 | 6.0 | 11.0 | 0.05 | 0.09 | 0.09 | 95 | 1019.4 |
| 20260506170758 | 32 | 58 | 6.0 | 13.0 | 0.05 | 0.09 | 0.09 | 95 | 1019.4 |
| 20260506170237 | 31 | 57 | 7.0 | 11.0 | 0.04 | 0.08 | 0.08 | 95 | 1019.3 |
| 20260506165737 | 31 | 52 | 8.0 | 12.0 | 0.04 | 0.08 | 0.08 | 94 | 1019.6 |
| 20260506165237 | 31 | 53 | 8.0 | 12.0 | 0.04 | 0.07 | 0.07 | 94 | 1019.6 |
| 20260506164737 | 31 | 55 | 7.0 | 13.0 | 0.04 | 0.07 | 0.07 | 94 | 1019.6 |
| 20260506164258 | 31 | 58 | 7.0 | 12.0 | 0.03 | 0.06 | 0.06 | 94 | 1019.4 |
| 20260506163737 | 31 | 51 | 7.0 | 12.0 | 0.04 | 0.06 | 0.06 | 95 | 1019.2 |
| 20260506163237 | 32 | 44 | 5.0 | 10.0 | 0.04 | 0.06 | 0.06 | 95 | 1019.1 |
| 20260506162737 | 31 | 59 | 6.0 | 12.0 | 0.03 | 0.05 | 0.05 | 94 | 1019.1 |
| 20260506162237 | 31 | 38 | 7.0 | 12.0 | 0.03 | 0.05 | 0.05 | 94 | 1019.1 |
| 20260506161737 | 31 | 56 | 7.0 | 12.0 | 0.03 | 0.05 | 0.05 | 94 | 1019.0 |
| 20260506161258 | 31 | 50 | 7.0 | 11.0 | 0.03 | 0.04 | 0.04 | 95 | 1019.0 |
| 20260506160737 | 31 | 41 | 6.0 | 10.0 | 0.03 | 0.04 | 0.04 | 95 | 1019.0 |
| 20260506160237 | 32 | 24 | 5.0 | 11.0 | 0.03 | 0.04 | 0.04 | 94 | 1019.0 |
| 20260506155737 | 32 | 45 | 6.0 | 11.0 | 0.03 | 0.04 | 0.04 | 94 | 1018.9 |
| 20260506155237 | 32 | 25 | 3.0 | 8.0 | 0.02 | 0.03 | 0.03 | 95 | 1018.8 |
| 20260506154737 | 32 | 20 | 4.0 | 8.0 | 0.02 | 0.03 | 0.03 | 95 | 1018.7 |
| 20260506154237 | 32 | 17 | 3.0 | 5.0 | 0.02 | 0.03 | 0.03 | 95 | 1018.6 |
| 20260506153737 | 32 | 10 | 3.0 | 6.0 | 0.02 | 0.02 | 0.02 | 95 | 1018.5 |
| 20260506153237 | 32 | 11 | 3.0 | 7.0 | 0.02 | 0.02 | 0.02 | 95 | 1018.5 |
| 20260506152737 | 32 | 349 | 4.0 | 7.0 | 0.02 | 0.02 | 0.02 | 95 | 1018.4 |
| 20260506152258 | 32 | -1 | 3.0 | 7.0 | 0.02 | 0.02 | 0.02 | 95 | 1018.4 |
| 20260506151737 | 32 | -1 | 3.0 | 7.0 | 0.02 | 0.02 | 0.02 | 95 | 1018.4 |
| 20260506151237 | 32 | 3 | 3.0 | 7.0 | 0.01 | 0.01 | 0.01 | 95 | 1018.4 |
| 20260506150737 | 32 | 339 | 3.0 | 6.0 | 0.01 | 0.01 | 0.01 | 95 | 1018.3 |
| 20260506150237 | 32 | 344 | 3.0 | 6.0 | 0.01 | 0.01 | 0.01 | 95 | 1018.2 |
| 20260506145737 | 32 | 354 | 3.0 | 6.0 | 0.01 | 0.01 | 0.01 | 95 | 1018.2 |
| 20260506145237 | 32 | 15 | 2.0 | 6.0 | 0.01 | 0.01 | 0.01 | 95 | 1018.2 |